This is the latest recevied weather packets stored in our database for station/object SV4JYD-13. If no packets are shown the sender has not sent any weather packets the latest 10 day(s).
| Time | Temp. | Humidity | Pressure | Rain* | Wind** | Luminosity | Snow |
|---|---|---|---|---|---|---|---|
| 1777573290 | 13.33° C | 10% | - | 0 mm | - | - | - |
| 1777572389 | 13.33° C | 10% | - | 0 mm | - | - | - |
| 1777571489 | 13.89° C | 10% | - | 0 mm | - | - | - |
| 1777570589 | 13.89° C | 10% | - | 0 mm | - | - | - |
| 1777569689 | 14.44° C | 99% | 1015 hPa | 0 mm | - | - | - |
| 1777568788 | 15° C | 98% | 1015 hPa | 0 mm | - | - | - |
| 1777567888 | 15° C | 95% | 1016 hPa | 0 mm | - | - | - |
| 1777566988 | 15.56° C | 94% | 1016 hPa | 0 mm | - | - | - |
| 1777566088 | 16.11° C | 94% | 1014 hPa | 0 mm | - | - | - |
| 1777565187 | 16.67° C | 92% | 1014 hPa | 0 mm | - | - | - |
| 1777564287 | 17.22° C | 90% | 1014 hPa | 0 mm | - | - | - |
| 1777563387 | 17.78° C | 87% | 1014 hPa | 0 mm | - | - | - |
| 1777562487 | 18.33° C | 83% | 1013 hPa | 0 mm | - | - | - |
| 1777561586 | 18.33° C | 78% | 1013 hPa | 0 mm | - | - | - |
| 1777560686 | 18.89° C | 72% | 1013 hPa | 0 mm | - | - | - |
| 1777559786 | 18.89° C | 69% | 1013 hPa | 0 mm | - | - | - |
| 1777558886 | 18.89° C | 64% | 1013 hPa | 0 mm | - | - | - |
| 1777557985 | 18.89° C | 56% | 1013 hPa | 0 mm | - | - | - |
| 1777557085 | 18.89° C | 56% | 1013 hPa | 0 mm | - | - | - |
| 1777556185 | 19.44° C | 56% | 1013 hPa | 0 mm | - | - | - |
| 1777555284 | 19.44° C | 56% | 1013 hPa | 0 mm | - | - | - |
| 1777554384 | 20° C | 55% | 1013 hPa | 0 mm | - | - | - |
| 1777553484 | 20.56° C | 54% | 1013 hPa | 0 mm | - | - | - |
| 1777552584 | 21.11° C | 54% | 1014 hPa | 0 mm | - | - | - |
| 1777551684 | 21.11° C | 53% | 1014 hPa | 0 mm | - | - | - |
* Rain latest hour (hover to see other rain measurements)
** Current wind speed in m/s (hover to see current wind gust speed)